• In Hungary
  • List of Countries
  • For 7 days
  • Water Temperature
  • Satellite Maps
  • Weather Map
  • News
  • Weather Widgets
  • user-avatar
    Login

    Hourly Weather Devichi Gorki

    Today, 24 September, Monday

    Time Temperature Precipitation Wind Pressure Humidity
    00:00 +16°C° 0 mm 5 mps 754 mmHg 40%
    01:00 +16°C° 0 mm 5 mps 754 mmHg 42%
    02:00 +16°C° 0 mm 5 mps 754 mmHg 43%
    03:00 +16°C° 0 mm 6 mps 753 mmHg 44%
    04:00 +16°C° 0.3 mm 5 mps 753 mmHg 52%
    05:00 +16°C° 0.3 mm 5 mps 753 mmHg 59%
    06:00 +15°C° 0.3 mm 5 mps 753 mmHg 67%
    07:00 +15°C° 1.3 mm 5 mps 754 mmHg 71%
    08:00 +14°C° 1.3 mm 5 mps 754 mmHg 76%
    09:00 +13°C° 1.3 mm 5 mps 754 mmHg 80%
    10:00 +14°C° 0 mm 5 mps 755 mmHg 77%
    11:00 +14°C° 0 mm 5 mps 755 mmHg 73%
    12:00 +14°C° 0 mm 6 mps 756 mmHg 69%
    13:00 +14°C° 0 mm 5 mps 756 mmHg 66%
    14:00 +15°C° 0 mm 5 mps 756 mmHg 63%
    15:00 +15°C° 0 mm 4 mps 756 mmHg 60%
    16:00 +14°C° 0 mm 3 mps 756 mmHg 63%
    17:00 +15°C° 0 mm 2 mps 757 mmHg 66%
    18:00 +14°C° 0 mm 1 mps 757 mmHg 69%
    19:00 +13°C° 0 mm 1 mps 757 mmHg 71%
    20:00 +13°C° 0 mm 1 mps 757 mmHg 72%
    21:00 +13°C° 0 mm 1 mps 757 mmHg 73%
    22:00 +12°C° 0 mm 2 mps 757 mmHg 74%
    23:00 +12°C° 0 mm 2 mps 757 mmHg 75%

    Tomorrow, 25 September, Tuesday

    Time Temperature Precipitation Wind Pressure Humidity
    00:00 +12°C° 0 mm 2 mps 757 mmHg 75%
    01:00 +11°C° 0 mm 3 mps 757 mmHg 75%
    02:00 +10°C° 0 mm 3 mps 756 mmHg 75%
    03:00 +10°C° 0 mm 3 mps 756 mmHg 75%
    04:00 +10°C° 0 mm 3 mps 756 mmHg 74%
    05:00 +10°C° 0 mm 4 mps 755 mmHg 72%
    06:00 +10°C° 0 mm 4 mps 755 mmHg 70%
    07:00 +12°C° 0 mm 5 mps 755 mmHg 62%
    08:00 +14°C° 0 mm 7 mps 754 mmHg 55%
    09:00 +16°C° 0 mm 8 mps 754 mmHg 47%
    10:00 +16°C° 0.1 mm 8 mps 754 mmHg 47%
    11:00 +17°C° 0.1 mm 8 mps 753 mmHg 48%
    12:00 +17°C° 0.1 mm 8 mps 753 mmHg 48%
    13:00 +18°C° 0.3 mm 7 mps 752 mmHg 51%
    14:00 +18°C° 0.3 mm 7 mps 752 mmHg 53%
    15:00 +18°C° 0.3 mm 7 mps 752 mmHg 55%
    16:00 +19°C° 0.5 mm 6 mps 752 mmHg 64%
    17:00 +17°C° 0.5 mm 6 mps 752 mmHg 72%
    18:00 +16°C° 0.5 mm 6 mps 752 mmHg 80%
    19:00 +15°C° 0.2 mm 5 mps 753 mmHg 80%
    20:00 +13°C° 0.2 mm 5 mps 753 mmHg 81%
    21:00 +12°C° 0.2 mm 4 mps 754 mmHg 81%
    22:00 +12°C° 0.3 mm 4 mps 755 mmHg 80%
    23:00 +11°C° 0.3 mm 3 mps 755 mmHg 80%

    Day after tomorrow, 26 September, Wednesday

    Time Temperature Precipitation Wind Pressure Humidity
    00:00 +11°C° 0.3 mm 3 mps 756 mmHg 79%
    01:00 +10°C° 0 mm 3 mps 756 mmHg 80%
    02:00 +10°C° 0 mm 3 mps 757 mmHg 81%
    03:00 +9°C° 0 mm 3 mps 757 mmHg 82%
    04:00 +9°C° 0 mm 3 mps 757 mmHg 82%
    05:00 +9°C° 0 mm 3 mps 758 mmHg 83%
    06:00 +8°C° 0 mm 3 mps 758 mmHg 84%
    07:00 +8°C° 0 mm 4 mps 759 mmHg 79%
    08:00 +10°C° 0 mm 4 mps 760 mmHg 74%
    09:00 +11°C° 0 mm 4 mps 760 mmHg 69%
    10:00 +10°C° 0 mm 5 mps 761 mmHg 65%
    11:00 +12°C° 0 mm 5 mps 761 mmHg 61%
    12:00 +13°C° 0 mm 5 mps 761 mmHg 58%
    13:00 +13°C° 0 mm 5 mps 761 mmHg 58%
    14:00 +13°C° 0 mm 5 mps 762 mmHg 58%
    15:00 +13°C° 0 mm 5 mps 762 mmHg 58%
    16:00 +12°C° 0 mm 4 mps 763 mmHg 61%
    17:00 +11°C° 0 mm 4 mps 763 mmHg 65%
    18:00 +10°C° 0 mm 3 mps 763 mmHg 68%
    19:00 +9°C° 0 mm 3 mps 764 mmHg 71%
    20:00 +8°C° 0 mm 3 mps 764 mmHg 74%
    21:00 +8°C° 0 mm 3 mps 764 mmHg 76%
    22:00 +7°C° 0 mm 3 mps 764 mmHg 78%
    23:00 +7°C° 0 mm 2 mps 764 mmHg 79%

    27 September, Thursday

    Time Temperature Precipitation Wind Pressure Humidity
    00:00 +6°C° 0 mm 2 mps 764 mmHg 80%
    01:00 +6°C° 0 mm 2 mps 764 mmHg 80%
    02:00 +5°C° 0 mm 2 mps 764 mmHg 81%
    03:00 +5°C° 0 mm 2 mps 764 mmHg 81%
    04:00 +5°C° 0 mm 2 mps 764 mmHg 81%
    05:00 +4°C° 0 mm 2 mps 764 mmHg 82%
    06:00 +4°C° 0 mm 2 mps 764 mmHg 83%
    07:00 +5°C° 0 mm 3 mps 764 mmHg 75%
    08:00 +7°C° 0 mm 4 mps 763 mmHg 67%
    09:00 +9°C° 0 mm 5 mps 763 mmHg 59%
    10:00 +10°C° 0 mm 5 mps 763 mmHg 54%
    11:00 +11°C° 0 mm 6 mps 762 mmHg 49%
    12:00 +12°C° 0 mm 7 mps 761 mmHg 44%
    13:00 +12°C° 0 mm 7 mps 761 mmHg 43%
    14:00 +12°C° 0 mm 8 mps 761 mmHg 42%
    15:00 +12°C° 0 mm 8 mps 760 mmHg 41%
    16:00 +11°C° 0 mm 7 mps 760 mmHg 44%
    17:00 +10°C° 0 mm 6 mps 760 mmHg 46%
    18:00 +9°C° 0 mm 5 mps 759 mmHg 48%
    19:00 +9°C° 0.1 mm 5 mps 759 mmHg 49%
    20:00 +9°C° 0.1 mm 6 mps 759 mmHg 51%
    21:00 +9°C° 0.1 mm 6 mps 759 mmHg 52%
    22:00 +9°C° 0.1 mm 6 mps 759 mmHg 55%
    23:00 +8°C° 0.1 mm 5 mps 759 mmHg 57%

    28 September, Friday

    Time Temperature Precipitation Wind Pressure Humidity
    00:00 +8°C° 0.1 mm 5 mps 759 mmHg 60%
    01:00 +8°C° 0 mm 5 mps 759 mmHg 64%
    02:00 +7°C° 0 mm 4 mps 758 mmHg 69%
    03:00 +7°C° 0 mm 4 mps 758 mmHg 73%
    04:00 +8°C° 0 mm 3 mps 758 mmHg 75%
    05:00 +7°C° 0 mm 3 mps 759 mmHg 77%
    06:00 +7°C° 0 mm 3 mps 759 mmHg 79%
    07:00 +8°C° 0 mm 4 mps 758 mmHg 74%
    08:00 +9°C° 0 mm 5 mps 758 mmHg 69%
    09:00 +11°C° 0 mm 6 mps 758 mmHg 65%
    10:00 +12°C° 0 mm 7 mps 758 mmHg 62%
    11:00 +14°C° 0 mm 7 mps 757 mmHg 60%
    12:00 +16°C° 0 mm 8 mps 757 mmHg 57%
    13:00 +16°C° 0 mm 8 mps 756 mmHg 55%
    14:00 +17°C° 0 mm 9 mps 756 mmHg 53%
    15:00 +18°C° 0 mm 9 mps 756 mmHg 51%
    16:00 +17°C° 0 mm 8 mps 755 mmHg 55%
    17:00 +16°C° 0 mm 7 mps 755 mmHg 58%
    18:00 +16°C° 0 mm 6 mps 755 mmHg 61%
    19:00 +16°C° 0 mm 7 mps 755 mmHg 62%
    20:00 +16°C° 0 mm 7 mps 755 mmHg 64%
    21:00 +16°C° 0 mm 8 mps 755 mmHg 65%
    22:00 +15°C° 0 mm 7 mps 756 mmHg 67%
    23:00 +15°C° 0 mm 6 mps 756 mmHg 69%

    29 September, Saturday

    Time Temperature Precipitation Wind Pressure Humidity
    00:00 +15°C° 0 mm 5 mps 756 mmHg 72%
    01:00 +14°C° 0 mm 4 mps 757 mmHg 76%
    02:00 +13°C° 0 mm 3 mps 758 mmHg 80%
    03:00 +11°C° 0 mm 3 mps 758 mmHg 85%
    04:00 +12°C° 0 mm 2 mps 759 mmHg 83%
    05:00 +10°C° 0 mm 2 mps 759 mmHg 82%
    06:00 +9°C° 0 mm 2 mps 760 mmHg 81%
    07:00 +10°C° 0 mm 2 mps 760 mmHg 73%
    08:00 +12°C° 0 mm 2 mps 760 mmHg 65%
    09:00 +13°C° 0 mm 1 mps 761 mmHg 57%
    10:00 +14°C° 0 mm 1 mps 761 mmHg 53%
    11:00 +15°C° 0 mm 1 mps 761 mmHg 49%
    12:00 +15°C° 0 mm 0 mps 761 mmHg 46%
    13:00 +16°C° 0 mm 1 mps 761 mmHg 47%
    14:00 +16°C° 0 mm 1 mps 761 mmHg 49%
    15:00 +16°C° 0 mm 1 mps 761 mmHg 50%
    16:00 +15°C° 0 mm 1 mps 761 mmHg 55%
    17:00 +14°C° 0 mm 1 mps 761 mmHg 59%
    18:00 +14°C° 0 mm 1 mps 761 mmHg 64%
    19:00 +13°C° 0.1 mm 1 mps 761 mmHg 66%
    20:00 +13°C° 0.1 mm 1 mps 761 mmHg 68%
    21:00 +12°C° 0.1 mm 1 mps 762 mmHg 70%
    22:00 +12°C° 0.1 mm 1 mps 762 mmHg 70%
    23:00 +12°C° 0.1 mm 1 mps 762 mmHg 70%
    Show more

    3.3.7123123